Belize, Belize

5:26 AM CST on February 08, 2016 (GMT -0600)
Philip S W Goldson International

Weather History for MZBZ - March, 2014

Change the Weather History Date:

Wednesday, March 26, 2014

  Actual Average Record
Temperature  
Mean Temperature 80 °F -  
Max Temperature 86 °F 87 °F 87 °F (1997)
Min Temperature 74 °F 73 °F 66 °F (1998)
Cooling Degree Days 15    
Growing Degree Days 30 (Base 50)    
Moisture  
Dew Point 74 °F    
Average Humidity 77    
Maximum Humidity 97    
Minimum Humidity 60    
Precipitation  
Precipitation 0.01 in 0.07 in - ()
Sea Level Pressure  
Sea Level Pressure 30.02 in    
Wind  
Wind Speed 5 mph ()    
Max Wind Speed 12 mph    
Max Gust Speed -    
Visibility 8.5 miles    
Events Rain    
Averages and records for this station are not official NWS values.
T = Trace of Precipitation, MM = Missing Value Source: Averaged Metar Reports

Daily Weather History Graph

Daily Weather History Graph

Search for Another Location

Airport or City:

Trip Planner

Search our weather history database for the weather conditions in past years. The results will help you decide how hot, cold, wet, or windy it might be!

Date:

Astronomy

Mar. 26, 2014 Rise Set
Actual Time 5:52 AM CST 6:05 PM CST
Civil Twilight 5:30 AM CST 6:27 PM CST
Nautical Twilight 5:05 AM CST 6:52 PM CST
Astronomical Twilight 4:40 AM CST 7:17 PM CST
Moon 2:24 AM CST (3/26) 2:16 PM CST (3/26)
Length of Visible Light 12h 56m
Length of Day
12h 12m
Waning Crescent, 21% of the Moon is Illuminated
Mar 26
Waning Crescent
Mar 30
New
Apr 7
First Quarter
Apr 15
Full
Apr 22
Last Quarter

Hourly Weather History & Observations

Time (CST) Temp. Heat Index Dew Point Humidity Pressure Visibility Wind Dir Wind Speed Gust Speed Precip Events Conditions
12:00 AM 76 °F - 74 °F 90% 30.00 in 12 mi Calm Calm - -   Scattered Clouds
3:00 AM 78 °F - 76 °F 90% 29.99 in 12 mi Calm Calm - -   Mostly Cloudy
5:00 AM 77.0 °F - 75.2 °F 94% 29.99 in 6.2 mi Calm Calm - N/A   Partly Cloudy
5:10 AM - - - N/A% - 6.2 mi ENE 9.2 mph - N/A   Mostly Cloudy
6:00 AM 74 °F - 73 °F 97% 30.02 in 12 mi Calm Calm - -   Mostly Cloudy
6:00 AM 75.2 °F - 73.4 °F 94% 30.02 in 6.2 mi Calm Calm - N/A   Mostly Cloudy
7:00 AM 77.0 °F - 75.2 °F 94% 30.03 in 6.2 mi Calm Calm - N/A   Scattered Clouds
8:00 AM 78.8 °F - 75.2 °F 89% 30.06 in 6.2 mi Calm Calm - N/A   Scattered Clouds
9:00 AM 84 °F - 73 °F 63% 30.07 in 12 mi East 10.4 mph - -   Partly Cloudy
9:00 AM 84.2 °F 90.9 °F 73.4 °F 70% 30.07 in 6.2 mi East 10.4 mph - N/A   Scattered Clouds
10:00 AM 86.0 °F 93.4 °F 73.4 °F 66% 30.06 in 6.2 mi East 11.5 mph - N/A   Mostly Cloudy
11:00 AM 86.0 °F 93.4 °F 73.4 °F 66% 30.06 in 6.2 mi East 11.5 mph - N/A   Mostly Cloudy
12:00 PM 83 °F - 74 °F 68% 30.05 in 12 mi East 10.4 mph - - Rain Light Rain Showers
12:00 PM 84.2 °F 90.9 °F 73.4 °F 70% 30.04 in 6.2 mi East 10.4 mph - N/A Rain Light Rain Showers
1:00 PM 82.4 °F 90.9 °F 77.0 °F 84% 30.02 in 6.2 mi East 9.2 mph - N/A   Mostly Cloudy
2:00 PM 86.0 °F 93.4 °F 73.4 °F 66% 30.00 in 6.2 mi East 10.4 mph - N/A   Scattered Clouds
3:00 PM 85 °F - 73 °F 60% 29.99 in 14 mi East 11.5 mph - -   Partly Cloudy
3:00 PM 84.2 °F 90.9 °F 73.4 °F 70% 29.98 in 6.2 mi East 11.5 mph - N/A   Scattered Clouds
4:00 PM 84.2 °F 90.9 °F 73.4 °F 70% 29.97 in 6.2 mi East 11.5 mph - N/A   Mostly Cloudy
5:00 PM 84.2 °F 90.9 °F 73.4 °F 70% 29.97 in 6.2 mi ENE 10.4 mph - N/A   Scattered Clouds
6:00 PM 81 °F - 74 °F 72% 29.98 in 14 mi East 5.8 mph - -   Partly Cloudy
6:00 PM 80.6 °F 85.4 °F 73.4 °F 79% 29.98 in 6.2 mi East 5.8 mph - N/A   Scattered Clouds
9:00 PM 80 °F - 72 °F 70% 30.05 in 14 mi East 6.9 mph - -   Scattered Clouds